User: anonymous   Login
Location: Sungai Laei
(2.6000°N, 113.7167°E)
Time: 12:41:26
(UTC+00:00)
Language:

Ariane H10-3 - Orbit

View from above orbital plane
View from above orbital plane
View from above satellite
View from above satellite

Ground track
Ground track

The orbit data is extracted from the following two-line orbital elements,

1 23766U 96002C   22227.33520436  .00001348  00000-0  85858-3 0  9995
2 23766   7.7482 332.7905 6384591 269.3194  22.6152  3.43261792279196
Epoch (UTC): 15 August 2022 08:02:41
Eccentricity: 0.6384591
inclination: 7.7482°
perigee height: 333 km
apogee height: 24036 km
right ascension of ascending node: 332.7905°
argument of perigee: 269.3194°
revolutions per day: 3.43261792
mean anomaly at epoch: 22.6152°
orbit number at epoch: 27919

The dashed part of the orbit path shows where the satellite is in the earth's shadow,  

DLR